When you browse on this site, cookies collect data to enhance your experience and personalize the content and advertising you see.
Visit our Privacy Policy to learn more. By continuing to use the site, you agree to this use of cookies and data.

Hourly Weather Stayki (Timonovo)

Today, 10 August, Monday

Time Temperature Precipitation Wind Pressure Humidity
00:00 +18°C° 0 mm 1 mps 747 mmHg 89%
01:00 +18°C° 0 mm 1 mps 747 mmHg 90%
02:00 +16°C° 0 mm 1 mps 747 mmHg 90%
03:00 +16°C° 0 mm 1 mps 747 mmHg 91%
04:00 +16°C° 0 mm 1 mps 747 mmHg 91%
05:00 +16°C° 0 mm 1 mps 747 mmHg 92%
06:00 +18°C° 0 mm 1 mps 747 mmHg 88%
07:00 +20°C° 0 mm 1 mps 747 mmHg 85%
08:00 +21°C° 0 mm 1 mps 747 mmHg 81%
09:00 +23°C° 0.5 mm 1 mps 747 mmHg 76%
10:00 +24°C° 0.5 mm 1 mps 747 mmHg 71%
11:00 +25°C° 0.5 mm 1 mps 747 mmHg 66%
12:00 +26°C° 1.5 mm 1 mps 747 mmHg 65%
13:00 +26°C° 1.5 mm 1 mps 747 mmHg 63%
14:00 +26°C° 1.5 mm 1 mps 747 mmHg 61%
15:00 +26°C° 0.5 mm 1 mps 746 mmHg 64%
16:00 +26°C° 0.5 mm 1 mps 746 mmHg 67%
17:00 +26°C° 0.5 mm 1 mps 746 mmHg 70%
18:00 +24°C° 0.1 mm 1 mps 746 mmHg 74%
19:00 +22°C° 0.1 mm 1 mps 746 mmHg 79%
20:00 +21°C° 0.1 mm 1 mps 746 mmHg 83%
21:00 +20°C° 0.1 mm 1 mps 746 mmHg 85%
22:00 +20°C° 0.1 mm 1 mps 746 mmHg 87%
23:00 +19°C° 0.1 mm 1 mps 746 mmHg 89%

Tomorrow, 11 August, Tuesday

Time Temperature Precipitation Wind Pressure Humidity
00:00 +19°C° 0 mm 1 mps 746 mmHg 89%
01:00 +18°C° 0 mm 1 mps 746 mmHg 90%
02:00 +18°C° 0 mm 1 mps 746 mmHg 91%
03:00 +17°C° 0 mm 2 mps 746 mmHg 92%
04:00 +17°C° 0 mm 2 mps 746 mmHg 94%
05:00 +16°C° 0 mm 2 mps 746 mmHg 95%
06:00 +17°C° 0.1 mm 3 mps 746 mmHg 92%
07:00 +19°C° 0.1 mm 3 mps 746 mmHg 89%
08:00 +20°C° 0.1 mm 4 mps 746 mmHg 86%
09:00 +21°C° 0 mm 4 mps 746 mmHg 80%
10:00 +22°C° 0 mm 4 mps 746 mmHg 74%
11:00 +23°C° 0 mm 4 mps 746 mmHg 68%
12:00 +23°C° 0 mm 4 mps 746 mmHg 67%
13:00 +23°C° 0 mm 5 mps 746 mmHg 66%
14:00 +23°C° 0 mm 5 mps 746 mmHg 66%
15:00 +22°C° 0 mm 5 mps 746 mmHg 66%
16:00 +21°C° 0 mm 4 mps 746 mmHg 67%
17:00 +20°C° 0 mm 4 mps 747 mmHg 68%
18:00 +19°C° 0 mm 4 mps 747 mmHg 72%
19:00 +17°C° 0 mm 4 mps 747 mmHg 77%
20:00 +14°C° 0 mm 4 mps 747 mmHg 81%
21:00 +13°C° 0 mm 3 mps 747 mmHg 83%
22:00 +12°C° 0 mm 3 mps 748 mmHg 86%
23:00 +11°C° 0 mm 3 mps 748 mmHg 88%

Day after tomorrow, 12 August, Wednesday

Time Temperature Precipitation Wind Pressure Humidity
00:00 +11°C° 0 mm 3 mps 748 mmHg 89%
01:00 +10°C° 0 mm 3 mps 748 mmHg 90%
02:00 +10°C° 0 mm 3 mps 748 mmHg 91%
03:00 +9°C° 0 mm 3 mps 748 mmHg 91%
04:00 +9°C° 0 mm 3 mps 748 mmHg 91%
05:00 +9°C° 0 mm 3 mps 748 mmHg 91%
06:00 +10°C° 0 mm 3 mps 748 mmHg 88%
07:00 +12°C° 0 mm 4 mps 748 mmHg 84%
08:00 +13°C° 0 mm 4 mps 748 mmHg 80%
09:00 +14°C° 0 mm 4 mps 748 mmHg 76%
10:00 +15°C° 0 mm 4 mps 748 mmHg 72%
11:00 +17°C° 0 mm 4 mps 748 mmHg 68%
12:00 +18°C° 0.1 mm 4 mps 748 mmHg 68%
13:00 +18°C° 0.1 mm 4 mps 748 mmHg 67%
14:00 +19°C° 0.1 mm 4 mps 748 mmHg 67%
15:00 +18°C° 0.1 mm 4 mps 748 mmHg 69%
16:00 +18°C° 0.1 mm 4 mps 748 mmHg 71%
17:00 +18°C° 0.1 mm 3 mps 748 mmHg 74%
18:00 +17°C° 0.1 mm 3 mps 748 mmHg 79%
19:00 +14°C° 0.1 mm 3 mps 748 mmHg 83%
20:00 +13°C° 0.1 mm 3 mps 748 mmHg 88%
21:00 +12°C° 0 mm 3 mps 748 mmHg 89%
22:00 +11°C° 0 mm 3 mps 748 mmHg 90%
23:00 +10°C° 0 mm 3 mps 749 mmHg 90%

13 August, Thursday

Time Temperature Precipitation Wind Pressure Humidity
00:00 +10°C° 0 mm 3 mps 749 mmHg 90%
01:00 +9°C° 0 mm 3 mps 749 mmHg 90%
02:00 +9°C° 0 mm 2 mps 749 mmHg 91%
03:00 +9°C° 0 mm 2 mps 749 mmHg 90%
04:00 +9°C° 0 mm 2 mps 749 mmHg 90%
05:00 +9°C° 0 mm 2 mps 749 mmHg 90%
06:00 +10°C° 0 mm 2 mps 749 mmHg 88%
07:00 +11°C° 0 mm 3 mps 749 mmHg 85%
08:00 +12°C° 0 mm 3 mps 749 mmHg 83%
09:00 +13°C° 0.1 mm 3 mps 749 mmHg 79%
10:00 +14°C° 0.1 mm 3 mps 749 mmHg 75%
11:00 +14°C° 0.1 mm 4 mps 749 mmHg 72%
12:00 +15°C° 0.1 mm 4 mps 749 mmHg 71%
13:00 +15°C° 0.1 mm 4 mps 749 mmHg 71%
14:00 +15°C° 0.1 mm 4 mps 749 mmHg 70%
15:00 +16°C° 0.1 mm 3 mps 749 mmHg 69%
16:00 +16°C° 0.1 mm 3 mps 749 mmHg 69%
17:00 +16°C° 0.1 mm 3 mps 749 mmHg 68%
18:00 +13°C° 0 mm 3 mps 749 mmHg 73%
19:00 +13°C° 0 mm 2 mps 749 mmHg 77%
20:00 +10°C° 0 mm 2 mps 749 mmHg 82%
21:00 +10°C° 0 mm 2 mps 749 mmHg 83%
22:00 +9°C° 0 mm 2 mps 749 mmHg 84%
23:00 +9°C° 0 mm 2 mps 749 mmHg 85%

14 August, Friday

Time Temperature Precipitation Wind Pressure Humidity
00:00 +8°C° 0 mm 2 mps 749 mmHg 86%
01:00 +8°C° 0 mm 2 mps 749 mmHg 87%
02:00 +8°C° 0 mm 2 mps 749 mmHg 88%
03:00 +7°C° 0 mm 2 mps 749 mmHg 88%
04:00 +7°C° 0 mm 2 mps 749 mmHg 88%
05:00 +7°C° 0 mm 2 mps 749 mmHg 89%
06:00 +9°C° 0 mm 2 mps 750 mmHg 83%
07:00 +12°C° 0 mm 2 mps 750 mmHg 78%
08:00 +14°C° 0 mm 2 mps 750 mmHg 73%
09:00 +15°C° 0 mm 2 mps 750 mmHg 67%
10:00 +17°C° 0 mm 2 mps 750 mmHg 61%
11:00 +18°C° 0 mm 2 mps 750 mmHg 56%
12:00 +18°C° 0 mm 2 mps 749 mmHg 55%
13:00 +19°C° 0 mm 2 mps 749 mmHg 55%
14:00 +19°C° 0 mm 2 mps 749 mmHg 54%
15:00 +19°C° 0 mm 2 mps 749 mmHg 57%
16:00 +19°C° 0 mm 2 mps 748 mmHg 60%
17:00 +19°C° 0 mm 2 mps 748 mmHg 62%
18:00 +17°C° 0 mm 2 mps 748 mmHg 69%
19:00 +16°C° 0 mm 2 mps 748 mmHg 76%
20:00 +14°C° 0 mm 2 mps 748 mmHg 83%
21:00 +14°C° 0 mm 2 mps 748 mmHg 83%
22:00 +13°C° 0 mm 2 mps 748 mmHg 83%
23:00 +13°C° 0 mm 2 mps 748 mmHg 83%

15 August, Saturday

Time Temperature Precipitation Wind Pressure Humidity
00:00 +13°C° 0 mm 2 mps 748 mmHg 85%
01:00 +13°C° 0 mm 2 mps 748 mmHg 87%
02:00 +12°C° 0 mm 3 mps 748 mmHg 89%
03:00 +12°C° 0 mm 3 mps 748 mmHg 89%
04:00 +12°C° 0 mm 3 mps 747 mmHg 88%
05:00 +12°C° 0 mm 3 mps 747 mmHg 87%
06:00 +13°C° 0 mm 3 mps 747 mmHg 88%
07:00 +14°C° 0 mm 3 mps 747 mmHg 88%
08:00 +16°C° 0 mm 3 mps 747 mmHg 88%
09:00 +16°C° 0 mm 3 mps 747 mmHg 88%
10:00 +16°C° 0 mm 3 mps 747 mmHg 88%
11:00 +16°C° 0 mm 3 mps 747 mmHg 88%
12:00 +16°C° 0.2 mm 3 mps 747 mmHg 87%
13:00 +17°C° 0.2 mm 3 mps 746 mmHg 86%
14:00 +17°C° 0.2 mm 2 mps 746 mmHg 85%
15:00 +17°C° 0.1 mm 2 mps 746 mmHg 85%
16:00 +18°C° 0.1 mm 2 mps 746 mmHg 85%
17:00 +18°C° 0.1 mm 2 mps 745 mmHg 85%
18:00 +17°C° 0 mm 2 mps 745 mmHg 86%
19:00 +16°C° 0 mm 2 mps 745 mmHg 88%
20:00 +16°C° 0 mm 3 mps 745 mmHg 90%
21:00 +14°C° 0 mm 3 mps 745 mmHg 91%
22:00 +14°C° 0 mm 3 mps 745 mmHg 92%
23:00 +13°C° 0 mm 3 mps 745 mmHg 93%
Show more